Tracking 29528 objects as of 14-Sep-2024
HD Live streaming from Space Station
objects crossing your sky now

COSMOS 1867 COOLANT

Track COSMOS 1867 COOLANT now!
10-day predictions


NORAD ID: 39656
Int'l Code: 1987-060T
Perigee: 773.7 km
Apogee: 804.0 km
Inclination: 65.0 °
Period: 100.5 minutes
Semi major axis: 7159 km
RCS: Unknown
Launch date: July 10, 1987
Source: Commonwealth of Independent States (former USSR) (CIS)
Launch site: TYURATAM MISSILE AND SPACE COMPLEX (TTMTR)

Note: This is SATELLITE DEBRIS
Your satellite tracking list
Your tracking list is empty




NASA's NSSDC Master Catalog

Two Line Element Set (TLE):
1 39656U 87060T   24257.71679962  .00002325  00000-0  88192-3 0  9990
2 39656  65.0102  11.3950 0021126 264.6057  95.2618 14.32998159545439
Source of the keplerian elements: AFSPC